Tracking 19847 objects as of 16-Sep-2019
HD Live streaming from Space Station
objects crossing your sky now

FENGYUN 1C DEB

Track FENGYUN 1C DEB now!
10-day predictions


NORAD ID: 35170
Int'l Code: 1999-025DNA
Perigee: 811.4 km
Apogee: 966.6 km
Inclination: 99.9 °
Period: 102.6 minutes
Semi major axis: 7260 km
RCS: 0.0097 m2 (small)
Launch date: May 10, 1999
Source: People's Republic of China (PRC)
Launch site: Taiyaun Space Center, China (TSC)

Note: This is SATELLITE DEBRIS
aabbcc
Your satellite tracking list
Your tracking list is empty




NASA's NSSDC Master Catalog

Two Line Element Set (TLE):
1 35170U 99025DNA 19256.30894353  .00000830  00000-0  53510-3 0  9997
2 35170  99.8656 288.0734 0106864  45.3913 315.5907 14.03445961584849
Source of the keplerian elements: AFSPC